TimeMST,TemperatureF,Dew PointF,Humidity,Sea Level PressureIn,VisibilityMPH,Wind Direction,Wind SpeedMPH,Gust SpeedMPH,PrecipitationIn,Events,Conditions,WindDirDegrees,DateUTC
12:15 AM,17.6,1.4,49,30.16,10.0,North,6.9,-,N/A,,Clear,350,2013-02-13 07:15:00
12:35 AM,19.4,3.2,49,30.16,10.0,North,6.9,-,N/A,,Clear,350,2013-02-13 07:35:00
12:55 AM,12.2,-0.4,57,30.16,10.0,Calm,Calm,-,N/A,,Clear,0,2013-02-13 07:55:00
1:15 AM,19.4,3.2,49,30.15,10.0,NW,10.4,-,N/A,,Clear,320,2013-02-13 08:15:00
1:35 AM,19.4,5.0,54,30.16,10.0,NNW,9.2,-,N/A,,Clear,340,2013-02-13 08:35:00
1:55 AM,21.2,5.0,50,30.16,10.0,NNW,9.2,-,N/A,,Clear,340,2013-02-13 08:55:00
2:15 AM,17.6,5.0,58,30.16,10.0,NNW,9.2,-,N/A,,Clear,330,2013-02-13 09:15:00
2:35 AM,19.4,5.0,54,30.16,10.0,NW,8.1,-,N/A,,Clear,320,2013-02-13 09:35:00
2:55 AM,19.4,5.0,54,30.15,10.0,NNW,8.1,-,N/A,,Clear,330,2013-02-13 09:55:00
3:15 AM,19.4,5.0,54,30.15,10.0,Calm,Calm,-,N/A,,Clear,0,2013-02-13 10:15:00
3:35 AM,19.4,5.0,54,30.15,10.0,NW,6.9,-,N/A,,Clear,320,2013-02-13 10:35:00
3:55 AM,17.6,5.0,58,30.15,10.0,Calm,Calm,-,N/A,,Clear,0,2013-02-13 10:55:00
4:15 AM,17.6,5.0,58,30.14,10.0,North,8.1,-,N/A,,Clear,360,2013-02-13 11:15:00
4:35 AM,17.6,5.0,58,30.14,10.0,NNW,5.8,-,N/A,,Clear,340,2013-02-13 11:35:00
5:50 AM,14.0,3.2,62,30.14,10.0,WSW,5.8,-,N/A,,Clear,250,2013-02-13 12:50:00
6:50 AM,14.0,1.4,57,30.15,10.0,WNW,5.8,-,N/A,,Clear,300,2013-02-13 13:50:00
7:50 AM,15.8,5.0,62,30.16,10.0,Calm,Calm,-,N/A,,Clear,0,2013-02-13 14:50:00
8:50 AM,26.6,6.8,43,30.16,10.0,NNW,17.3,-,N/A,,Clear,340,2013-02-13 15:50:00
9:50 AM,32.0,6.8,35,30.16,10.0,NNW,12.7,-,N/A,,Clear,340,2013-02-13 16:50:00
10:50 AM,32.0,6.8,35,30.16,10.0,NW,9.2,-,N/A,,Clear,310,2013-02-13 17:50:00
11:50 AM,35.6,6.8,30,30.12,10.0,West,10.4,-,N/A,,Clear,280,2013-02-13 18:50:00
12:50 PM,39.2,8.6,28,30.10,10.0,NW,8.1,16.1,N/A,,Clear,320,2013-02-13 19:50:00
1:50 PM,41.0,8.6,26,30.06,10.0,NW,12.7,24.2,N/A,,Clear,320,2013-02-13 20:50:00
2:50 PM,42.8,10.4,27,30.06,10.0,NNW,19.6,-,N/A,,Clear,330,2013-02-13 21:50:00
3:50 PM,42.8,10.4,27,30.05,10.0,NW,18.4,-,N/A,,Clear,320,2013-02-13 22:50:00
4:50 PM,41.0,8.6,26,30.05,10.0,NNW,18.4,-,N/A,,Clear,340,2013-02-13 23:50:00
5:50 PM,37.4,8.6,30,30.06,10.0,NNW,12.7,-,N/A,,Clear,340,2013-02-14 00:50:00
6:50 PM,35.6,8.6,33,30.09,10.0,NNW,5.8,-,N/A,,Clear,340,2013-02-14 01:50:00
7:50 PM,35.6,10.4,35,30.11,10.0,WNW,11.5,-,N/A,,Clear,300,2013-02-14 02:50:00
8:50 PM,33.8,10.4,38,30.11,10.0,WNW,11.5,-,N/A,,Clear,300,2013-02-14 03:50:00
9:15 PM,32.0,8.6,38,30.12,10.0,NNE,5.8,-,N/A,,Clear,20,2013-02-14 04:15:00
9:35 PM,28.4,8.6,43,30.12,10.0,NNW,4.6,-,N/A,,Clear,330,2013-02-14 04:35:00
9:55 PM,28.4,8.6,43,30.12,10.0,NNW,6.9,-,N/A,,Clear,330,2013-02-14 04:55:00
10:15 PM,28.4,8.6,43,30.13,10.0,NNW,5.8,-,N/A,,Clear,330,2013-02-14 05:15:00
10:35 PM,28.4,8.6,43,30.13,10.0,WNW,5.8,-,N/A,,Clear,300,2013-02-14 05:35:00
10:55 PM,28.4,10.4,47,30.12,10.0,North,13.8,-,N/A,,Clear,360,2013-02-14 05:55:00
11:15 PM,28.4,10.4,47,30.12,10.0,North,12.7,-,N/A,,Clear,360,2013-02-14 06:15:00
11:35 PM,28.4,10.4,47,30.13,10.0,North,10.4,-,N/A,,Clear,360,2013-02-14 06:35:00
11:55 PM,28.4,10.4,47,30.12,10.0,North,8.1,-,N/A,,Clear,10,2013-02-14 06:55:00